547  
NZUS93 KARX 220410  
HRRWXR  
 
CURRENT HOURLY OBSERVATIONS ACROSS  
MUCH OF THE UPPER MISSISSIPPI VALLEY  
NATIONAL WEATHER SERVICE LA CROSSE WI  
1100 PM CDT SAT APR 21 2018  
 
   
..SOUTHEAST MINNESOTA
 
 
 
CITY SKY/WX TMP DP RH WIND PRES REMARKS  
ROCHESTER FAIR 43 35 73 S5 30.36S  
ROCHESTER/MAYO CLOUDY 47 33 57 CALM 30.37S  
WINONA FAIR 43 36 75 CALM 30.35S  
AUSTIN FAIR 37 34 87 CALM 30.35F  
ALBERT LEA FAIR 39 32 75 CALM 30.35F  
DODGE CENTER MOCLDY 41 36 81 CALM 30.37S  
PRESTON FAIR 45 31 58 CALM 30.36F  
OWATONNA CLOUDY 43 36 75 SE5 30.36S  
FARIBAULT NOT AVBL  

 
   
..ELSEWHERE IN MINNESOTA
 
 
 
CITY SKY/WX TMP DP RH WIND PRES REMARKS  
MINNEAPOLIS FAIR 51 33 50 SW5 30.36S  
INTNL FALLS FAIR 41 25 53 CALM 30.29R  
DULUTH FAIR 43 18 36 E3 30.35R  
RED WING FAIR 36 28 75 CALM 30.36F  
REDWOOD FALLS CLEAR 40 35 83 SE6 30.34R  
MANKATO FAIR 44 36 73 SE7 30.36S  
WORTHINGTON CLOUDY 37 31 78 E5 30.32S WCI 33  
FAIRMONT PTCLDY 38 32 79 E3 30.33F  

 
   
..SOUTHWEST WISCONSIN
 
 
 
CITY SKY/WX TMP DP RH WIND PRES REMARKS  
LA CROSSE FAIR 47 33 58 E3 30.37S  
PRAIRIE DU CHI CLOUDY 43 32 67 CALM 30.36F  
BOSCOBEL FAIR 39 34 82 CALM 30.38F  
LONE ROCK FAIR 41 36 82 E3 30.39S  
PLATTEVILLE FAIR 47 37 68 E6 30.37F  
FORT MC COY FAIR 33 29 84 CALM 30.39R  
CAMP DOUGLAS FAIR 37 31 79 CALM 30.37S  
MAUSTON-NEW LI CLOUDY 39 32 77 CALM 30.37S  
VIROQUA FAIR 45 32 61 SE6 30.37S  
WIS DELLS FAIR 43 29 56 S3 30.38F  

 
   
..ELSEWHERE IN WISCONSIN
 
 
 
CITY SKY/WX TMP DP RH WIND PRES REMARKS  
MILWAUKEE MOCLDY 45 23 42 CALM 30.40S  
MADISON MOCLDY 41 33 73 CALM 30.38F  
GREEN BAY FAIR 38 27 64 CALM 30.38F  
EAU CLAIRE FAIR 42 30 62 CALM 30.36S  
BLACK RVR FLS FAIR 31 30 98 CALM 30.38R  
MEDFORD FAIR 36 27 69 CALM 30.36S  
WAUSAU FAIR 37 27 67 S5 30.35F WCI 33  
WIS RAPIDS FAIR 37 25 61 CALM 30.38S  
MARSHFIELD FAIR 43 26 51 SW3 30.36S  
RICE LAKE FAIR 34 28 78 CALM 30.38S  

 
   
..NORTHEAST IOWA
 
 
 
CITY SKY/WX TMP DP RH WIND PRES REMARKS  
WATERLOO CLOUDY 48 33 56 E10 30.32F  
DUBUQUE CLOUDY 47 34 60 E3 30.36F  
DECORAH FAIR 45 34 65 SE3 30.35F  
MASON CITY CLOUDY 39 35 86 E3 30.35F  
CHARLES CITY CLOUDY 45 39 81 E8 30.35F  
OELWEIN CLOUDY 48 36 61 E8 30.35F  

 
   
..ELSEWHERE IN IOWA
 
 
 
CITY SKY/WX TMP DP RH WIND PRES REMARKS  
DES MOINES MOCLDY 52 29 41 E9 30.28F  
IOWA CITY MOCLDY 52 32 46 E10 30.32F  
FORT DODGE CLOUDY 48 40 73 E9 30.32R  
MARSHALLTOWN CLOUDY 48 35 60 E10 30.31R  
CEDAR RAPIDS FAIR 50 35 56 E13 30.31F  

 
   
..NORTHERN ILLINOIS
 
 
 
CITY SKY/WX TMP DP RH WIND PRES REMARKS  
CHICAGO-OHARE CLOUDY 46 19 34 N7 30.38F  
CHICAGO-MIDWAY CLOUDY 47 17 30 NE8 30.39F  
MOLINE FAIR 51 33 50 E13 30.33F  
ROCKFORD CLOUDY 47 22 37 E6 30.40F  
PEORIA FAIR 52 32 46 NE14 30.32F  

 
 
NOTE: "FAIR" INDICATES FEW OR NO CLOUDS BELOW 12,000 FEET WITH NO  
SIGNIFICANT WEATHER AND/OR OBSTRUCTIONS TO VISIBILITY. WIND  
SPEEDS ARE IN MILES-PER-HOUR.  
 
 
CLICK HERE TO GO TO PREVIOUS BULLETINS.

The Nexlab WI Page
The Nexlab IA Page
The Nexlab MN Page Main Text Page